Portada
METAR-TAF:

METAR-TAF

Aeroports :

Ceduna, Austràlia

latitud: 32-07-50S, longitud: 133-42-35E, altitud: 23 m

Observació

L'informe es va fer fa 39 minuts, a les 04:22 UTC
Vent 24 kt del Oest/Sud-Oest amb ràfegues de 34 kt
Temperatura 23°C
Humitat 65%
Pressió 1007 hPa
Visibilitat 10 km o més

METAR: YCDU 120422Z AUTO 25024G34KT 9999 // NCD 23/16 Q1007

Hora: 15:31 (05:01 UTC)


TAF: manca

Observacions i pronòstics meteorològics de més de 4000 aeroports (METAR i TAF).

Les estacions disponibles són els punts grocs i vermells al mapa.

Posi el ratolí al punt desitjat per veure el nom de l'estació.

Feu clic per veure les observacions i els pronòstics meteorològics.

Per canviar el mapa: feu clic els botons verds amb una creu de color negre per apropar; al botó verd amb un guió per allunyar la imatge; o en les fletxes verdes per a mapes adjacents.


METAR-TAF: